Jacksonville, IL

3:51 PM CST on January 17, 2017 (GMT -0600)
Jacksonville Municipal

Weather History for KIJX - November, 2012

Change the Weather History Date:

Monday, November 12, 2012

  Actual Average (KSPI) Record (KSPI)
Temperature  
Mean Temperature 36 °F -  
Max Temperature 43 °F 50 °F 75 °F (1971)
Min Temperature 28 °F 31 °F 12 °F (1986)
Degree Days  
Heating Degree Days 30    
Moisture  
Dew Point 25 °F    
Average Humidity 67    
Maximum Humidity 87    
Minimum Humidity 45    
Precipitation  
Precipitation 0.01 in - - ()
Sea Level Pressure  
Sea Level Pressure 30.28 in    
Wind  
Wind Speed 13 mph (WSW)    
Max Wind Speed 22 mph    
Max Gust Speed 29 mph    
Visibility 10 miles    
Events      
Averages and records for this station are not official NWS values.
T = Trace of Precipitation, MM = Missing Value Source: NWS Daily Summary

Daily Weather History Graph

Daily Weather History Graph

Search for Another Location

Airport or City:

Trip Planner

Search our weather history database for the weather conditions in past years. The results will help you decide how hot, cold, wet, or windy it might be!

Date:

Astronomy

Nov. 12, 2012 Rise Set
Actual Time 6:42 AM CST 4:47 PM CST
Civil Twilight 6:13 AM CST 5:15 PM CST
Nautical Twilight 5:41 AM CST 5:48 PM CST
Astronomical Twilight 5:09 AM CST 6:20 PM CST
Moon 5:08 AM CST (11/12) 3:52 PM CST (11/12)
Length of Visible Light 11h 01m
Length of Day
10h 04m
Waning Crescent, 2% of the Moon is Illuminated
Nov 12
Waning Crescent
Nov 13
New
Nov 20
First Quarter
Nov 28
Full
Dec 6
Last Quarter

Hourly Weather History & Observations

Time (CST) Temp. Windchill Dew Point Humidity Pressure Visibility Wind Dir Wind Speed Gust Speed Precip Events Conditions
12:15 AM 35.8 °F 27.3 °F 32.0 °F 86% 30.10 in 10.0 mi WNW 12.7 mph 21.9 mph N/A   Overcast
12:35 AM 35.6 °F 27.1 °F 32.0 °F 87% 30.13 in 10.0 mi WNW 12.7 mph 19.6 mph N/A   Overcast
12:55 AM 35.6 °F 27.1 °F 30.4 °F 81% 30.13 in 10.0 mi WNW 12.7 mph 17.3 mph N/A   Overcast
1:15 AM 35.4 °F 26.8 °F 30.2 °F 81% 30.12 in 10.0 mi WNW 12.7 mph 17.3 mph N/A   Overcast
1:35 AM 35.6 °F 27.1 °F 30.2 °F 81% 30.13 in 10.0 mi WNW 12.7 mph 19.6 mph N/A   Overcast
1:55 AM 34.7 °F 25.1 °F 28.8 °F 79% 30.13 in 10.0 mi WNW 15.0 mph 20.7 mph N/A   Overcast
2:15 AM 34.0 °F 25.0 °F 27.7 °F 78% 30.15 in 10.0 mi WNW 12.7 mph 23.0 mph N/A   Overcast
2:35 AM 33.8 °F 22.8 °F 28.0 °F 79% 30.16 in 10.0 mi West 18.4 mph 21.9 mph N/A   Overcast
2:55 AM 32.4 °F 21.3 °F 23.9 °F 71% 30.18 in 10.0 mi WNW 17.3 mph 23.0 mph 0.01 in   Scattered Clouds
3:15 AM 32.0 °F 23.0 °F 24.4 °F 74% 30.17 in 10.0 mi WNW 11.5 mph 21.9 mph N/A   Clear
3:35 AM 32.0 °F 20.8 °F 24.8 °F 75% 30.16 in 10.0 mi West 17.3 mph 20.7 mph N/A   Clear
3:55 AM 31.6 °F 20.7 °F 24.8 °F 76% 30.17 in 10.0 mi West 16.1 mph 21.9 mph N/A   Clear
4:15 AM 31.1 °F 20.5 °F 24.6 °F 77% 30.18 in 10.0 mi West 15.0 mph - N/A   Clear
4:35 AM 30.9 °F 20.7 °F 24.8 °F 78% 30.20 in 10.0 mi West 13.8 mph - N/A   Clear
4:55 AM 30.6 °F 20.2 °F 24.6 °F 79% 30.20 in 10.0 mi West 13.8 mph 18.4 mph N/A   Clear
5:15 AM 30.2 °F 19.8 °F 24.3 °F 79% 30.22 in 10.0 mi West 13.8 mph 17.3 mph N/A   Clear
5:35 AM 30.0 °F 19.5 °F 23.7 °F 77% 30.23 in 10.0 mi West 13.8 mph - N/A   Clear
5:55 AM 29.3 °F 19.6 °F 23.4 °F 78% 30.23 in 10.0 mi West 11.5 mph - N/A   Clear
6:15 AM 30.2 °F 21.3 °F 23.0 °F 75% 30.24 in 10.0 mi West 10.4 mph - N/A   Clear
6:35 AM 28.4 °F 20.4 °F 21.2 °F 74% 30.25 in 10.0 mi West 8.1 mph - N/A   Clear
6:55 AM 29.1 °F 21.3 °F 21.6 °F 73% 30.26 in 10.0 mi West 8.1 mph - N/A   Clear
7:15 AM 29.3 °F 21.5 °F 21.9 °F 74% 30.27 in 10.0 mi WSW 8.1 mph - N/A   Clear
7:35 AM 30.2 °F 22.6 °F 22.3 °F 72% 30.27 in 10.0 mi WSW 8.1 mph - N/A   Clear
7:55 AM 30.9 °F 20.2 °F 23.0 °F 72% 30.28 in 10.0 mi West 15.0 mph - N/A   Clear
8:15 AM 31.6 °F 21.2 °F 23.0 °F 70% 30.28 in 10.0 mi WSW 15.0 mph - N/A   Clear
8:35 AM 32.0 °F 23.6 °F 22.6 °F 68% 30.29 in 10.0 mi West 10.4 mph 19.6 mph N/A   Clear
8:55 AM 32.7 °F 23.0 °F 22.5 °F 66% 30.29 in 10.0 mi West 13.8 mph 21.9 mph N/A   Clear
9:15 AM 33.8 °F 25.3 °F 24.1 °F 68% 30.29 in 10.0 mi WSW 11.5 mph 19.6 mph N/A   Clear
9:35 AM 34.2 °F 24.4 °F 24.1 °F 67% 30.29 in 10.0 mi West 15.0 mph 19.6 mph N/A   Clear
9:55 AM 35.2 °F 26.2 °F 24.3 °F 64% 30.30 in 10.0 mi West 13.8 mph - N/A   Clear
10:15 AM 35.8 °F 26.1 °F 23.9 °F 62% 30.30 in 10.0 mi West 16.1 mph 21.9 mph N/A   Clear
10:35 AM 36.9 °F 27.1 °F 24.1 °F 60% 30.30 in 10.0 mi WSW 17.3 mph 20.7 mph N/A   Clear
10:55 AM 37.6 °F 29.6 °F 24.4 °F 59% 30.30 in 10.0 mi WSW 12.7 mph 23.0 mph N/A   Clear
11:15 AM 38.8 °F 30.0 °F 23.9 °F 55% 30.29 in 10.0 mi West 16.1 mph 23.0 mph N/A   Clear
11:35 AM 39.4 °F 30.1 °F 23.7 °F 54% 30.29 in 10.0 mi West 18.4 mph 25.3 mph N/A   Clear
11:55 AM 40.8 °F 32.6 °F 25.0 °F 53% 30.29 in 10.0 mi WSW 16.1 mph 20.7 mph N/A   Clear
12:15 PM 41.0 °F 31.4 °F 23.7 °F 50% 30.28 in 10.0 mi West 21.9 mph 26.5 mph N/A   Clear
12:35 PM 41.5 °F 32.6 °F 23.5 °F 49% 30.27 in 10.0 mi WSW 19.6 mph 24.2 mph N/A   Clear
12:55 PM 42.1 °F 33.3 °F 23.5 °F 48% 30.27 in 10.0 mi WSW 19.6 mph 25.3 mph N/A   Clear
1:15 PM 42.1 °F 33.6 °F 23.5 °F 48% 30.27 in 10.0 mi WSW 18.4 mph 26.5 mph N/A   Clear
1:35 PM 42.4 °F 35.0 °F 23.0 °F 46% 30.27 in 10.0 mi West 15.0 mph 25.3 mph N/A   Clear
1:55 PM 43.0 °F 34.0 °F 23.0 °F 45% 30.26 in 10.0 mi West 21.9 mph 27.6 mph N/A   Clear
2:15 PM 42.8 °F 34.5 °F 23.0 °F 46% 30.27 in 10.0 mi WSW 18.4 mph 28.8 mph N/A   Clear
2:35 PM 42.8 °F 34.0 °F 23.0 °F 46% 30.27 in 10.0 mi WSW 20.7 mph 25.3 mph N/A   Clear
2:55 PM 43.2 °F 35.6 °F 23.2 °F 45% 30.27 in 10.0 mi West 16.1 mph 20.7 mph N/A   Clear
3:15 PM 43.3 °F 35.0 °F 23.7 °F 46% 30.28 in 10.0 mi WSW 19.6 mph 25.3 mph N/A   Clear
3:35 PM 43.0 °F 35.1 °F 23.9 °F 47% 30.29 in 10.0 mi WSW 17.3 mph 20.7 mph N/A   Clear
3:55 PM 42.8 °F 35.8 °F 24.1 °F 48% 30.30 in 10.0 mi WSW 13.8 mph 21.9 mph N/A   Clear
4:15 PM 42.3 °F 34.4 °F 23.2 °F 47% 30.31 in 10.0 mi West 16.1 mph 19.6 mph N/A   Clear
4:35 PM 41.4 °F 35.2 °F 23.9 °F 50% 30.32 in 10.0 mi WSW 10.4 mph - N/A   Clear
4:55 PM 40.5 °F 35.1 °F 24.3 °F 52% 30.32 in 10.0 mi WSW 8.1 mph - N/A   Clear
5:15 PM 40.1 °F 34.1 °F 24.3 °F 53% 30.33 in 10.0 mi West 9.2 mph - N/A   Clear
5:35 PM 39.4 °F 33.8 °F 24.6 °F 56% 30.33 in 10.0 mi WSW 8.1 mph - N/A   Clear
5:55 PM 39.4 °F 33.8 °F 24.3 °F 55% 30.34 in 10.0 mi WSW 8.1 mph - N/A   Clear
6:15 PM 37.4 °F 32.8 °F 25.3 °F 62% 30.35 in 10.0 mi WSW 5.8 mph - N/A   Clear
6:35 PM 36.1 °F 30.6 °F 25.7 °F 66% 30.35 in 10.0 mi WSW 6.9 mph - N/A   Clear
6:55 PM 37.2 °F 31.9 °F 25.3 °F 62% 30.36 in 10.0 mi WSW 6.9 mph - N/A   Clear
7:15 PM 35.8 °F 30.9 °F 25.7 °F 67% 30.36 in 10.0 mi WSW 5.8 mph - N/A   Clear
7:35 PM 34.9 °F 29.0 °F 26.2 °F 71% 30.37 in 10.0 mi SW 6.9 mph - N/A   Clear
7:55 PM 35.1 °F 30.1 °F 26.6 °F 71% 30.38 in 10.0 mi SW 5.8 mph - N/A   Clear
8:15 PM 34.5 °F 29.4 °F 26.6 °F 73% 30.38 in 10.0 mi SW 5.8 mph - N/A   Clear
8:35 PM 34.2 °F 28.2 °F 27.1 °F 75% 30.38 in 10.0 mi SW 6.9 mph - N/A   Clear
8:55 PM 33.8 °F 27.7 °F 26.6 °F 75% 30.39 in 10.0 mi SW 6.9 mph - N/A   Clear
9:15 PM 34.0 °F 29.8 °F 26.1 °F 73% 30.39 in 10.0 mi WSW 4.6 mph - N/A   Clear
9:35 PM 33.3 °F 27.9 °F 26.6 °F 77% 30.40 in 10.0 mi SW 5.8 mph - N/A   Clear
9:55 PM 32.4 °F 27.9 °F 26.8 °F 80% 30.41 in 10.0 mi SW 4.6 mph - N/A   Clear
10:15 PM 32.9 °F 27.5 °F 27.0 °F 79% 30.41 in 10.0 mi SW 5.8 mph - N/A   Clear
10:35 PM 32.4 °F 27.9 °F 26.6 °F 79% 30.41 in 10.0 mi SW 4.6 mph - N/A   Clear
10:55 PM 32.0 °F 27.5 °F 26.2 °F 79% 30.41 in 10.0 mi WSW 4.6 mph - N/A   Clear
11:15 PM 32.0 °F 27.5 °F 26.6 °F 80% 30.42 in 10.0 mi SW 4.6 mph - N/A   Clear
11:35 PM 31.5 °F 26.8 °F 26.2 °F 81% 30.42 in 10.0 mi SW 4.6 mph - N/A   Clear
11:55 PM 32.0 °F 27.5 °F 26.4 °F 80% 30.42 in 10.0 mi SW 4.6 mph - N/A   Clear